Location: Aurora Center
(43.5271°N, 98.5894°W)
Time: 22:24:03
(UTC-05:00)

ISS - Pass Details

Date: 26 June 2024
Orbit: 409 x 424 km, 51.6° (Epoch: 18 July)

Event Time Altitude Azimuth Distance (km) Brightness Sun altitude
Exits shadow 03:43:11 35° 155° (SSE) 686 -3.0 -17.2°
Maximum altitude 03:43:31 36° 139° (SE) 671 -2.9 -17.1°
Drops below altitude 10° 03:46:37 10° 71° (ENE) 1,490 -0.3 -16.8°
Sets 03:48:49 0° 63° (ENE) 2,360 1.1 -16.6°
